[[{"header":{"parameterUnit":"m.s-1","parameterCategory":1,"la1":30.2991,"la2":30.254,"lo1":-89.0895,"lo2":-89.0444,"dy":0.0017,"dx":0.0017,"nx":28,"ny":28,"refTime":"2024-05-29T03:00:00:Z","depth":0,"parameterNumber":2,"parameterNumberName":"U-component_of_WINDS"},"data":[0,0,0,0,0,0,0,0,0,0,0,0,0,0,0,0,0,0,0,0,0,0,0,0,0,0,0,0,0,0,0,0,0,0,0,0,0,0,0,0,0,0,0,0,0,0,0,0,0,0,0,0,0,0,0,0,0,0,-4.4036,-4.4036,0,-4.3991,-4.399,-4.399,-4.3861,-4.3859,-4.3856,-4.3853,-4.381,-4.3812,-4.3813,0,0,0,0,0,0,0,0,0,0,0,0,0,-4.4017,-4.4018,-4.4036,-4.4036,-4.4035,-4.3991,-4.399,-4.399,-4.3862,-4.3859,-4.3855,-4.3852,-4.381,-4.3811,-4.3813,0,0,0,0,0,0,0,0,0,0,0,0,0,-4.4004,-4.4019,-4.4036,-4.3966,-4.3959,-4.3991,-4.399,-4.3989,-4.3863,-4.3858,-4.3854,-4.385,-4.3809,-4.3811,-4.3813,-4.3911,0,0,-4.382,-4.3821,0,0,0,0,0,0,0,0,-4.4005,-4.4005,-4.3977,-4.3971,-4.3963,-4.3927,-4.3968,-4.3963,-4.3864,-4.3899,-4.3853,-4.3848,-4.3853,-4.3851,-4.3852,-4.3909,-4.3907,-4.382,-4.3822,-4.3823,-4.3823,0,0,0,0,0,0,0,-4.4006,-4.4006,-4.4018,-4.3977,-4.3968,-4.3938,-4.3932,-4.3966,-4.39,-4.3896,-4.3887,-4.3883,-4.3848,-4.385,-4.385,-4.3906,-4.382,-4.3822,-4.3824,-4.3824,-4.4044,-4.4048,0,0,0,0,0,0,-4.4017,-4.4008,-4.402,-4.4017,-4.3974,-4.3942,-4.3935,-4.3943,-4.39,-4.3889,-4.3886,-4.3877,-4.3848,-4.3848,-4.3848,-4.396,-4.3823,-4.3825,-4.3826,-4.4039,-4.4045,-4.405,0,0,0,0,0,0,-4.4017,-4.4019,-4.4021,-4.401,-4.4008,-4.3947,-4.3957,-4.3945,-4.3946,-4.3892,-4.388,-4.39,-4.3845,-4.3845,-4.3896,-4.3957,-4.3826,-4.3828,-4.4034,-4.4041,-4.4047,-4.4185,0,0,0,0,0,0,-4.4017,-4.402,-4.4055,-4.4012,-4.4009,-4.4069,-4.3961,-4.3947,-4.395,-4.3937,-4.3902,-4.3892,-4.3842,-4.3894,-4.3899,-4.3957,-4.3829,-4.4028,-4.4037,-4.4045,-4.4175,-4.4195,-4.4213,0,0,0,0,0,-4.4017,-4.4095,-4.4057,-4.4059,-4.4051,-4.4073,-4.4072,-4.4011,-4.3955,-4.3991,-4.3957,-4.3893,-4.395,-4.39,-4.3905,-4.3965,-4.4024,-4.4035,-4.4044,-4.4166,-4.4191,-4.4213,0,0,0,0,0,0,-4.4147,-4.4088,-4.4045,-4.4112,-4.4099,-4.4051,-4.4094,-4.404,-4.4043,-4.4031,-4.3957,-4.3951,-4.4013,-4.3994,-4.394,-4.4058,-4.3977,-4.3988,-4.4068,-4.4091,-4.411,-4.4113,-4.3831,0,0,0,0,0,-4.4184,-4.4205,-4.4153,-4.4217,-4.4213,-4.4155,-4.4162,-4.4117,-4.4101,-4.4095,-4.4064,-4.4052,-4.4067,-4.4078,-4.4089,-4.4172,-4.4164,-4.4216,-4.4236,-4.4252,-4.4262,-4.4307,-4.433,-4.4083,-4.4083,-4.4083,0,0,-4.4259,-4.423,-4.4248,-4.4243,-4.4227,-4.4253,-4.4151,-4.4182,-4.42,-4.41,-4.4146,-4.4124,-4.4106,-4.4174,-4.4203,-4.416,-4.4329,-4.4265,-4.4278,-4.4279,-4.4319,-4.4343,-4.4364,-4.409,-4.4089,-4.4088,0,0,-4.4409,-4.4389,-4.4441,-4.4428,-4.4405,-4.4367,-4.438,-4.4342,-4.4323,-4.4369,-4.4295,-4.4317,-4.4344,-4.4335,-4.4334,-4.4486,-4.4428,-4.4492,-4.4592,-4.4636,-4.4656,-4.4672,-4.4727,-4.4748,-4.4502,-4.4503,-4.4503,0,-4.4506,-4.454,-4.4474,-4.451,-4.4512,-4.4422,-4.4475,-4.4466,-4.445,-4.4453,-4.4406,-4.444,-4.4422,-4.4487,-4.4525,-4.4526,-4.454,-4.4494,-4.4658,-4.4674,-4.4689,-4.4741,-4.4761,-4.4511,-4.451,-4.4509,-4.4508,0,-4.4661,-4.4686,-4.4731,-4.4716,-4.4723,-4.4768,-4.4711,-4.4726,-4.4682,-4.465,-4.4699,-4.4674,-4.4679,-4.4692,-4.4649,-4.4753,-4.4727,-4.4671,-4.4587,-4.4721,-4.4769,-4.4788,-4.4522,-4.4519,-4.4517,-4.4515,0,0,-4.4888,-4.4839,-4.4857,-4.485,-4.4821,-4.484,-4.4883,-4.4887,-4.4902,-4.4895,-4.493,-4.4957,-4.4905,-4.4904,-4.486,-4.4899,-4.5022,-4.4837,-4.4836,-4.4872,-4.5137,-4.5179,-4.5203,-4.4985,-4.4988,-4.4991,-4.5138,0,-4.503,-4.5097,-4.5042,-4.512,-4.5144,-4.5062,-4.5099,-4.5087,-4.5059,-4.5076,-4.5046,-4.5067,-4.4996,-4.4995,-4.503,-4.5,-4.5074,-4.4989,-4.5017,-4.5019,-4.5023,-4.5227,-4.5271,-4.5411,-4.5156,-4.5159,-4.5161,0,-4.5203,-4.5204,-4.5285,-4.5253,-4.5261,-4.5295,-4.5296,-4.5314,-4.53,-4.5277,-4.5278,-4.5225,-4.5266,-4.5186,-4.5243,-4.5187,-4.5196,-4.5183,-4.5187,-4.5187,-4.5097,-4.5232,-4.5454,-4.5475,-4.519,-4.5187,-4.5185,0,-4.5361,-4.5383,-4.5434,-4.5432,-4.5396,-4.5422,-4.5409,-4.539,-4.5398,-4.54,-4.5404,-4.5412,-4.5416,-4.5425,-4.5376,-4.5322,-4.544,-4.5355,-4.5424,-4.5425,-4.545,-4.5449,-4.5677,-4.5459,-4.5458,-4.5458,-4.5457,0,-4.5525,-4.5578,-4.5505,-4.5537,-4.5595,-4.5533,-4.5592,-4.557,-4.5556,-4.5583,-4.5514,-4.5541,-4.5475,-4.5497,-4.546,-4.5514,-4.5517,-4.5501,-4.549,-4.5506,-4.5508,-4.551,-4.5499,-4.5463,-4.5462,-4.5461,-4.546,0,-4.571,-4.5663,-4.5714,-4.5677,-4.5669,-4.5714,-4.5683,-4.5712,-4.5681,-4.5717,-4.5722,-4.5674,-4.5697,-4.5649,-4.5665,-4.564,-4.5717,-4.5691,-4.5722,-4.5714,-4.5784,-4.5779,-4.602,-4.6049,-4.5813,-4.5816,-4.5818,0,-4.5816,-4.5855,-4.5823,-4.5836,-4.5827,-4.5849,-4.5857,-4.5798,-4.5809,-4.5798,-4.583,-4.5846,-4.5856,-4.5896,-4.5864,-4.5877,-4.585,-4.5935,-4.5852,-4.5868,-4.5852,-4.585,-4.5854,-4.5951,-4.5954,-4.5956,-4.5958,0,-4.6011,-4.5987,-4.5999,-4.6006,-4.6017,-4.6019,-4.6017,-4.6032,-4.5971,-4.5987,-4.6009,-4.6017,-4.6035,-4.6053,-4.6059,-4.6047,-4.5994,-4.5985,-4.6001,-4.6018,-4.6034,-4.6026,-4.5767,-4.5979,-4.5977,-4.5976,-4.5974,-4.5974,-4.6159,-4.6191,-4.6174,-4.6191,-4.6184,-4.6184,-4.621,-4.6183,-4.62,-4.6209,-4.6175,-4.6205,-4.6193,-4.6195,-4.619,-4.6214,-4.6177,-4.62,-4.6206,-4.6213,-4.6224,-4.6032,-4.6215,-4.6215,-4.6214,-4.6213,-4.6213,0,-4.6349,-4.6335,-4.6353,-4.6352,-4.6367,-4.6316,-4.6311,-4.6328,-4.6355,-4.6348,-4.636,-4.6387,-4.6406,-4.6376,-4.639,-4.6415,-4.6392,-4.6421,-4.6418,-4.6417,-4.6257,-4.6241,-4.644,-4.644,-4.644,-4.644,-4.644,-4.644,-4.645,-4.6501,-4.6476,-4.6524,-4.651,-4.6539,-4.6541,-4.6542,-4.6536,-4.6569,-4.6584,-4.6565,-4.655,-4.6563,-4.6578,-4.6569,-4.6578,-4.6616,-4.6599,-4.645,-4.6427,-4.6406,-4.6391,-4.6618,-4.6619,-4.6756,-4.6757,-4.6758]},{"header":{"parameterUnit":"m.s-1","parameterCategory":1,"la1":30.2991,"la2":30.254,"lo1":-89.0895,"lo2":-89.0444,"dy":0.0017,"dx":0.0017,"nx":28,"ny":28,"refTime":"2024-05-29T03:00:00:Z","depth":0,"parameterNumber":3,"parameterNumberName":"V-component_of_WINDS"},"data":[0,0,0,0,0,0,0,0,0,0,0,0,0,0,0,0,0,0,0,0,0,0,0,0,0,0,0,0,0,0,0,0,0,0,0,0,0,0,0,0,0,0,0,0,0,0,0,0,0,0,0,0,0,0,0,0,0,0,2.355,2.355,0,2.3538,2.3537,2.3537,2.3582,2.3584,2.3585,2.3586,2.3567,2.3565,2.3563,0,0,0,0,0,0,0,0,0,0,0,0,0,2.3609,2.3608,2.355,2.355,2.355,2.3538,2.3537,2.3537,2.3582,2.3584,2.3585,2.3587,2.3567,2.3565,2.3563,0,0,0,0,0,0,0,0,0,0,0,0,0,2.3588,2.3607,2.355,2.3571,2.3573,2.3538,2.3537,2.3537,2.3582,2.3584,2.3586,2.3588,2.3568,2.3566,2.3563,2.3505,0,0,2.3555,2.3553,0,0,0,0,0,0,0,0,2.3589,2.3586,2.3568,2.3569,2.3571,2.3564,2.3551,2.3526,2.3581,2.3578,2.3586,2.3589,2.3564,2.3562,2.3554,2.3504,2.3503,2.3554,2.3553,2.3552,2.3551,0,0,0,0,0,0,0,2.3591,2.3587,2.3545,2.3568,2.357,2.358,2.3579,2.3547,2.3559,2.3578,2.3582,2.358,2.3565,2.3557,2.3554,2.3503,2.3554,2.3552,2.355,2.3549,2.3407,2.3405,0,0,0,0,0,0,2.359,2.3588,2.3545,2.3545,2.3586,2.3577,2.3576,2.3564,2.356,2.3561,2.3578,2.3582,2.3561,2.3557,2.3554,2.3486,2.3552,2.3549,2.3548,2.3409,2.3406,2.3404,0,0,0,0,0,0,2.3591,2.3586,2.3546,2.3567,2.3563,2.3574,2.356,2.3563,2.3555,2.356,2.3562,2.3568,2.3562,2.3558,2.3518,2.3486,2.3548,2.3545,2.3412,2.3408,2.3405,2.3351,0,0,0,0,0,0,2.3593,2.3586,2.3565,2.3566,2.3562,2.3511,2.3558,2.3561,2.3551,2.3556,2.3551,2.3552,2.3563,2.3522,2.3515,2.3484,2.3543,2.3414,2.341,2.3406,2.3355,2.3346,2.3338,0,0,0,0,0,2.3595,2.3548,2.3564,2.3558,2.3536,2.3509,2.3506,2.3522,2.3548,2.3526,2.353,2.3552,2.3492,2.3517,2.351,2.3478,2.3416,2.3411,2.3407,2.3359,2.3348,2.3338,0,0,0,0,0,0,2.3539,2.3549,2.3566,2.3519,2.3513,2.3517,2.3489,2.3509,2.3494,2.3499,2.3519,2.3517,2.3474,2.3472,2.35,2.3423,2.3458,2.3452,2.3425,2.3414,2.3406,2.3405,2.3541,0,0,0,0,0,2.3523,2.3502,2.3511,2.3468,2.3465,2.3478,2.3467,2.348,2.3474,2.3471,2.3472,2.3464,2.3444,2.3429,2.341,2.3357,2.3356,2.3331,2.3323,2.3316,2.3309,2.3281,2.327,2.3388,2.3388,2.3388,0,0,2.3485,2.3488,2.3473,2.3457,2.3454,2.3431,2.3475,2.3448,2.3431,2.3466,2.3429,2.343,2.3422,2.3376,2.3355,2.3373,2.3277,2.3309,2.3304,2.33,2.3275,2.3264,2.3254,2.3385,2.3385,2.3386,0,0,2.3407,2.3407,2.3372,2.337,2.3367,2.3376,2.3368,2.337,2.3372,2.3336,2.3363,2.3342,2.3306,2.33,2.3292,2.3215,2.3234,2.3209,2.3162,2.3135,2.3126,2.3118,2.3089,2.3079,2.3203,2.3203,2.3202,0,2.336,2.3328,2.3351,2.3324,2.3316,2.3351,2.3315,2.3311,2.3301,2.3294,2.3315,2.3273,2.327,2.3222,2.3204,2.3197,2.3187,2.3208,2.3126,2.3118,2.311,2.3084,2.3073,2.3199,2.32,2.32,2.32,0,2.3272,2.3249,2.3222,2.3214,2.3203,2.3171,2.3189,2.3175,2.3191,2.3198,2.3161,2.316,2.3143,2.3133,2.3146,2.3088,2.3099,2.3123,2.3159,2.3096,2.3071,2.3061,2.3195,2.3196,2.3197,2.3198,0,0,2.3153,2.3162,2.3151,2.3149,2.315,2.3132,2.3103,2.3089,2.3076,2.3069,2.3044,2.3015,2.3038,2.3029,2.3043,2.3019,2.2958,2.3046,2.3046,2.3028,2.2893,2.2874,2.2862,2.2973,2.2971,2.2969,2.2894,0,2.3075,2.3027,2.3048,2.2997,2.2977,2.3012,2.2986,2.2983,2.299,2.2973,2.298,2.2959,2.2991,2.2986,2.2965,2.297,2.2931,2.2976,2.2948,2.2946,2.2946,2.2849,2.2828,2.2757,2.2884,2.2883,2.2882,0,2.2976,2.2968,2.2916,2.2923,2.2915,2.2892,2.2881,2.2865,2.2863,2.287,2.2862,2.2882,2.2853,2.2892,2.2851,2.2882,2.2872,2.2873,2.2871,2.2866,2.2908,2.2841,2.2734,2.2723,2.2867,2.2868,2.2869,0,2.2894,2.287,2.2836,2.2833,2.284,2.2823,2.2825,2.2826,2.2816,2.2807,2.2801,2.2788,2.278,2.2769,2.2785,2.2811,2.2742,2.2781,2.2745,2.2745,2.2726,2.2727,2.2615,2.2723,2.2724,2.2724,2.2724,0,2.2803,2.2769,2.28,2.2778,2.2742,2.2767,2.273,2.2736,2.2736,2.2716,2.2746,2.2725,2.2749,2.2731,2.2743,2.2708,2.2704,2.2708,2.2711,2.2704,2.2703,2.2696,2.27,2.2721,2.2722,2.2722,2.2723,0,2.2703,2.2723,2.2688,2.2699,2.2701,2.2674,2.2683,2.2663,2.2674,2.2648,2.2644,2.266,2.264,2.2657,2.2637,2.2645,2.2598,2.261,2.2599,2.2602,2.2564,2.2567,2.2442,2.2426,2.2546,2.2545,2.2544,0,2.2643,2.2618,2.2628,2.2618,2.2619,2.2602,2.2594,2.2619,2.2609,2.2607,2.2587,2.2571,2.256,2.2527,2.2536,2.2522,2.2532,2.2489,2.2529,2.2524,2.253,2.253,2.2527,2.248,2.2478,2.2477,2.2476,0,2.2533,2.2545,2.2533,2.2525,2.2516,2.251,2.2506,2.2496,2.2522,2.2509,2.2491,2.2483,2.2465,2.2448,2.2438,2.2438,2.2461,2.2464,2.2455,2.2446,2.2441,2.2442,2.2575,2.2466,2.2467,2.2468,2.2468,2.2469,2.2451,2.2431,2.2436,2.2422,2.2423,2.242,2.2402,2.2413,2.2399,2.2388,2.2404,2.2382,2.2383,2.2371,2.237,2.2352,2.237,2.2356,2.2352,2.2348,2.2342,2.2446,2.235,2.2351,2.2351,2.2351,2.2352,0,2.2342,2.2348,2.2335,2.2331,2.232,2.2347,2.2345,2.2333,2.2315,2.2314,2.2304,2.2284,2.2269,2.2279,2.2266,2.225,2.226,2.2245,2.2246,2.2245,2.2328,2.2337,2.2238,2.2238,2.2238,2.2238,2.2238,2.2238,2.2284,2.2252,2.2265,2.2234,2.224,2.2221,2.2217,2.2214,2.2215,2.2192,2.2181,2.2189,2.2192,2.2181,2.2168,2.2171,2.2164,2.2146,2.2152,2.2228,2.2239,2.225,2.2258,2.2144,2.2144,2.2071,2.207,2.207]}]]